Regional Weather Roundup
Issued by NWS Newport/Morehead, NC

Current Version | Previous Version | Text Only | Print | Product List | Glossary On
Versions: 1 2 3 4 5 6 7 8 9 10 11 12 13 14 15 16 17 18 19 20 21 22 23 24 25 26 27 28 29 30 31 32 33 34 35 36 37 38 39 40 41 42 43 44 45 46 47 48 49 50
000
ASUS42 KMHX 261525
RWRMHX
WEATHER ROUNDUP FOR EASTERN NORTH CAROLINA
NATIONAL WEATHER SERVICE NEWPORT/MOREHEAD CITY NC
1100 AM EDT FRI AUG 26 2016

NOTE: "FAIR" INDICATES FEW OR NO CLOUDS BELOW 12,000 FEET
WITH NO SIGNIFICANT WEATHER AND/OR OBSTRUCTIONS TO VISIBILITY

NCZ015>017-031-032-045>047-102-103-261600-
NORTH COAST

CITY           SKY/WX    TMP DP  RH WIND       PRES   REMARKS
EDENTON        MOSUNNY   85  69  58 SW7       30.11S
ELIZABETH CITY MOSUNNY   86  71  60 S10       30.10S
KITTY HAWK     SUNNY     88  76  67 SW6       30.10S
MANTEO         MOSUNNY   83  70  65 SW6       30.11F

$$

NCZ045>047-081-094-103-104-261600-
CENTRAL COAST

CITY           SKY/WX    TMP DP  RH WIND       PRES   REMARKS
FRISCO         SUNNY     85  71  63 VRB6      30.12R

$$

NCZ095-097-098-100-101-261600-
SOUTHERN COAST

CITY           SKY/WX    TMP DP  RH WIND       PRES   REMARKS
BEAUFORT       SUNNY     84  69  60 VRB3      30.11S
CEDAR ISLAND   NOT AVBL
JACKSONVILLE   MOSUNNY   84  69  60 CALM      30.11R
PINEY ISLAND   NOT AVBL
WILMINGTON     PTSUNNY   83  70  64 CALM      30.11F


$$

NCZ011>013-027>030-043-044-078>080-089-090>093-098-261600-
COASTAL PLAIN

CITY           SKY/WX    TMP DP  RH WIND       PRES   REMARKS
AHOSKIE        SUNNY     82  73  72 CALM      30.09S
CLINTON        SUNNY     85  74  69 SW3       30.10F
ELIZABETHTOWN  SUNNY     84  71  65 W3        30.11S
GOLDSBORO      SUNNY     87  74  66 SW6       30.09R
GREENVILLE     SUNNY     86  73  66 W5        30.11S
HAVELOCK       PTSUNNY   85  70  60 VRB5      30.12S
KENANSVILLE    SUNNY     86  73  66 SW3       30.11S
KINSTON        SUNNY     86  72  62 S3        30.11S
NEW BERN       SUNNY     85  69  58 SW5       30.12S
RICHLANDS      SUNNY     85  72  65 S8        30.11S
ROCKY MOUNT    SUNNY     86  74  67 NW5       30.10R
WASHINGTON     SUNNY     84  72  67 S6        30.11S
WHITEVILLE     SUNNY     84  70  61 CALM      30.11S

$$

AMZ130-135-150-152-154-156-158-170-250-252-270-ANZ085-086-088-633-658-670-261600-
MARINE OBSERVATIONS

STATION/POSITION TIME  TEMP    WIND        PRES    WAVE   SWELL
                       AIR SEA DIR/SP/G            HT/PER HT/PER
                 (UTC) (F)     (DEG/KT/KT) (MB)    (FT/S) (FT/S)
CHESAPEAKE LIGHT NOT AVBL
64 E VA BEACH    1450   80 80  220/ 10/ 12 1018.9    2/ 8   2/ 8
DUCK             1500   81 77  220/ 11/ 13 1018.7
2 E DUCK         1511      79                N/A     2/ 8
OREGON INLET     1500   81 81  190/  7/  8 1019.6
13E OREGON INLT  1500      78                N/A     2/ 8   2/ 8
HATTERAS CG      1500   81 81  340/  4/  5 1019.7
DIAMOND BUOY     1450   81 85   20/  4/  8 1019.9    2/ 8   2/ 8
CAPE LOOKOUT     1500   84     300/  2/  4 1019.5
BEAUFORT LAB     1500   85 80   CALM  /  3 1019.2
30 SE NEW RVR IN 1508   82 84   30/  4/  6 1019.9
30 SE NEW RVR IN 1425      84                N/A     2/ 8
27 SE WRIGHTSVLE 1508   82 83   40/  4/  6 1020.1
5 SE WRIGHTSVLE  1508   82 83  320/  2/  4 1021.1
225 S CAPE HAT   1450   82 84   60/ 19/ 23 1017.0    4/ 8   2/ 8
41 SE CHARLESTON 1450   82 83   50/ 10/ 12 1019.0    3/ 8   2/ 8

$$




USA.gov is the U.S. government's official web portal to all federal, state and local government web resources and services.